Anchialos, Greece

3:51 AM EEST on August 20, 2017 (GMT +0300)
Almiros Air Base

Weather History for LGBL - October, 2012

Change the Weather History Date:

Wednesday, October 3, 2012

  Actual Average Record
Temperature  
Mean Temperature 74 °F -  
Max Temperature 87 °F - - ()
Min Temperature 62 °F - - ()
Cooling Degree Days 10    
Growing Degree Days 24 (Base 50)    
Moisture  
Dew Point 55 °F    
Average Humidity 52    
Maximum Humidity 77    
Minimum Humidity 27    
Precipitation  
Precipitation 0.00 in - - ()
Sea Level Pressure  
Sea Level Pressure 29.92 in    
Wind  
Wind Speed 5 mph ()    
Max Wind Speed 16 mph    
Max Gust Speed -    
Visibility 6.2 miles    
Events      
T = Trace of Precipitation, MM = Missing Value Source: Averaged Metar Reports

Daily Weather History Graph

Daily Weather History Graph

Search for Another Location

Airport or City:

Trip Planner

Search our weather history database for the weather conditions in past years. The results will help you decide how hot, cold, wet, or windy it might be!

Date:

Astronomy

Oct. 03, 2012 Rise Set
Actual Time 7:26 AM EEST 7:07 PM EEST
Civil Twilight 7:00 AM EEST 7:34 PM EEST
Nautical Twilight 6:29 AM EEST 8:05 PM EEST
Astronomical Twilight 5:57 AM EEST 8:36 PM EEST
Moon 8:49 PM EEST (10/3) 10:31 AM EEST (10/3)
Length of Visible Light 12h 34m
Length of Day
11h 41m
Waning Gibbous, 90% of the Moon is Illuminated
Oct 3
Waning Gibbous
Oct 8
Last Quarter
Oct 15
New
Oct 22
First Quarter
Oct 29
Full

Hourly Weather History & Observations

Time (EEST) Temp. Heat Index Dew Point Humidity Pressure Visibility Wind Dir Wind Speed Gust Speed Precip Events Conditions
12:50 AM 64.4 °F - 55.4 °F 73% 29.98 in - SW 4.6 mph - N/A   Clear
1:50 AM 62.6 °F - 55.4 °F 77% 29.95 in - Calm Calm - N/A   Clear
2:50 AM 62.6 °F - 55.4 °F 77% 29.95 in - SSW 4.6 mph - N/A   Clear
3:50 AM 66.2 °F - 53.6 °F 64% 29.95 in - Calm Calm - N/A   Clear
5:50 AM 64.4 °F - 53.6 °F 68% 29.95 in - West 4.6 mph - N/A   Clear
6:20 AM 64.4 °F - 53.6 °F 68% 29.95 in - WNW 4.6 mph - N/A   Clear
6:50 AM 64.4 °F - 53.6 °F 68% 29.95 in - Calm Calm - N/A   Clear
7:20 AM 62.6 °F - 53.6 °F 72% 29.95 in - Calm Calm - N/A   Clear
7:50 AM 62.6 °F - 53.6 °F 72% 29.95 in - Calm Calm - N/A   Clear
8:20 AM 68.0 °F - 55.4 °F 64% 29.95 in - Calm Calm - N/A   Clear
8:50 AM 71.6 °F - 57.2 °F 60% 29.95 in - Calm Calm - N/A   Clear
9:20 AM 77.0 °F - 55.4 °F 47% 29.95 in - NW 5.8 mph - N/A   Clear
9:50 AM 78.8 °F - 55.4 °F 44% 29.95 in - WNW 6.9 mph - N/A   Clear
10:20 AM 80.6 °F 80.3 °F 53.6 °F 39% 29.95 in - WNW 9.2 mph - N/A   Clear
10:50 AM 82.4 °F 81.4 °F 53.6 °F 37% 29.95 in - West 9.2 mph - N/A   Clear
11:20 AM 84.2 °F - 51.8 °F 33% 29.95 in - WNW 16.1 mph - N/A   Clear
11:50 AM 84.2 °F - 51.8 °F 33% 29.95 in 6.2 mi WNW 15.0 mph - N/A   Partly Cloudy
12:20 PM 84.2 °F - 51.8 °F 33% 29.95 in 6.2 mi WNW 13.8 mph - N/A   Partly Cloudy
1:20 PM 86.0 °F - 51.8 °F 31% 29.92 in 6.2 mi WNW 13.8 mph - N/A   Partly Cloudy
1:50 PM 86.0 °F - 50.0 °F 29% 29.92 in 6.2 mi West 12.7 mph - N/A   Partly Cloudy
2:20 PM 87.8 °F - 50.0 °F 27% 29.92 in 6.2 mi West 10.4 mph - N/A   Partly Cloudy
3:20 PM 86.0 °F 84.2 °F 53.6 °F 33% 29.89 in 6.2 mi East 12.7 mph - N/A   Partly Cloudy
3:50 PM 84.2 °F 83.0 °F 55.4 °F 37% 29.89 in 6.2 mi East 15.0 mph - N/A   Partly Cloudy
4:20 PM 84.2 °F 83.0 °F 55.4 °F 37% 29.89 in 6.2 mi East 15.0 mph - N/A   Partly Cloudy
4:50 PM 84.2 °F 83.0 °F 55.4 °F 37% 29.89 in 6.2 mi East 12.7 mph - N/A   Partly Cloudy
5:20 PM 82.4 °F 81.7 °F 55.4 °F 39% 29.86 in 6.2 mi East 12.7 mph - N/A   Partly Cloudy
5:50 PM 84.2 °F 83.0 °F 55.4 °F 37% 29.86 in 6.2 mi East 11.5 mph - N/A   Partly Cloudy
6:20 PM 80.6 °F 81.1 °F 59.0 °F 48% 29.86 in 6.2 mi East 12.7 mph - N/A   Partly Cloudy
6:50 PM 78.8 °F - 60.8 °F 54% 29.89 in 6.2 mi East 8.1 mph - N/A   Scattered Clouds
7:20 PM 75.2 °F - 59.0 °F 57% 29.89 in 6.2 mi East 6.9 mph - N/A   Scattered Clouds
7:50 PM 75.2 °F - 59.0 °F 57% 29.89 in 6.2 mi Calm Calm - N/A   Scattered Clouds
8:20 PM 73.4 °F - 59.0 °F 61% 29.89 in 6.2 mi Calm Calm - N/A   Scattered Clouds
8:50 PM 73.4 °F - 59.0 °F 61% 29.89 in 6.2 mi Calm Calm - N/A   Partly Cloudy
9:50 PM 69.8 °F - 59.0 °F 68% 29.92 in 6.2 mi WNW 4.6 mph - N/A   Partly Cloudy
10:50 PM 68.0 °F - 55.4 °F 64% 29.92 in 6.2 mi West 3.5 mph - N/A   Partly Cloudy
11:50 PM 68.0 °F - 55.4 °F 64% 29.92 in 6.2 mi Calm Calm - N/A   Partly Cloudy